| time (UTC) | temp F | wind direction | speed knots | gust knots | rain 1hr in | rain 24hr in | rain mn in | humidity % | barometer mb |
| 20260510234834 | 77 | 181 | 0.9 | 2.6 | 0.00 | 0.00 | 0.00 | 45 | 970.5 |
| 20260510234331 | 78 | 155 | 0.9 | 6.1 | 0.00 | 0.00 | 0.00 | 47 | 970.4 |
| 20260510233830 | 78 | 206 | 1.7 | 6.1 | 0.00 | 0.00 | 0.00 | 44 | 970.3 |
| 20260510233326 | 78 | 238 | 1.7 | 5.2 | 0.00 | 0.00 | 0.00 | 43 | 970.3 |
| 20260510232327 | 79 | 219 | 1.7 | 5.2 | 0.00 | 0.00 | 0.00 | 45 | 970.2 |
| 20260510231826 | 79 | 175 | 0.9 | 6.1 | 0.00 | 0.00 | 0.00 | 43 | 970.2 |
| 20260510231326 | 79 | 167 | 2.6 | 7.8 | 0.00 | 0.00 | 0.00 | 42 | 970.1 |
| 20260510230826 | 79 | 202 | 3.5 | 9.6 | 0.00 | 0.00 | 0.00 | 42 | 970.1 |
| 20260510230329 | 80 | 173 | 2.6 | 9.6 | 0.00 | 0.00 | 0.00 | 42 | 970.0 |
| 20260510225828 | 80 | 157 | 1.7 | 8.7 | 0.00 | 0.00 | 0.00 | 41 | 970.0 |
| 20260510225327 | 80 | 150 | 2.6 | 8.7 | 0.00 | 0.00 | 0.00 | 40 | 970.0 |
| 20260510224827 | 81 | 201 | 3.5 | 8.7 | 0.00 | 0.00 | 0.00 | 40 | 970.0 |
| 20260510224324 | 82 | 171 | 1.7 | 7.8 | 0.00 | 0.00 | 0.00 | 39 | 970.0 |
| 20260510223825 | 82 | 238 | 0.9 | 5.2 | 0.00 | 0.00 | 0.00 | 40 | 970.0 |
| 20260510223325 | 83 | 214 | 0.9 | 5.2 | 0.00 | 0.00 | 0.00 | 38 | 970.0 |
| 20260510222825 | 83 | 237 | 0.9 | 5.2 | 0.00 | 0.00 | 0.00 | 37 | 970.0 |
| 20260510222325 | 83 | 171 | 0.9 | 7.0 | 0.00 | 0.00 | 0.00 | 38 | 970.0 |
| 20260510221825 | 83 | 267 | 0.9 | 7.0 | 0.00 | 0.00 | 0.00 | 38 | 970.0 |
| 20260510221324 | 83 | 161 | 0.0 | 3.5 | 0.00 | 0.00 | 0.00 | 38 | 970.0 |
| 20260510220822 | 83 | 159 | 0.9 | 4.3 | 0.00 | 0.00 | 0.00 | 39 | 969.9 |
| 20260510220322 | 83 | 151 | 1.7 | 7.0 | 0.00 | 0.00 | 0.00 | 37 | 969.9 |
| 20260510215822 | 83 | 278 | 1.7 | 7.0 | 0.00 | 0.00 | 0.00 | 38 | 969.9 |
| 20260510215322 | 83 | 165 | 1.7 | 6.1 | 0.00 | 0.00 | 0.00 | 37 | 969.9 |
| 20260510214823 | 83 | 169 | 2.6 | 7.0 | 0.00 | 0.00 | 0.00 | 38 | 969.9 |
| 20260510214318 | 83 | 180 | 1.7 | 7.0 | 0.00 | 0.00 | 0.00 | 36 | 969.9 |
| 20260510213818 | 83 | 186 | 0.9 | 7.8 | 0.00 | 0.00 | 0.00 | 38 | 969.9 |
| 20260510213318 | 83 | 196 | 1.7 | 7.8 | 0.00 | 0.00 | 0.00 | 37 | 969.8 |
| 20260510212819 | 83 | 334 | 1.7 | 7.0 | 0.00 | 0.00 | 0.00 | 38 | 969.8 |
| 20260510212318 | 83 | 178 | 2.6 | 13.0 | 0.00 | 0.00 | 0.00 | 36 | 969.8 |
| 20260510211820 | 83 | 168 | 1.7 | 13.0 | 0.00 | 0.00 | 0.00 | 36 | 969.8 |
| 20260510211318 | 83 | 228 | 1.7 | 7.8 | 0.00 | 0.00 | 0.00 | 36 | 969.8 |
| 20260510210819 | 83 | 317 | 0.9 | 7.8 | 0.00 | 0.00 | 0.00 | 36 | 969.8 |
| 20260510205818 | 83 | 176 | 1.7 | 8.7 | 0.00 | 0.00 | 0.00 | 35 | 969.9 |
| 20260510205319 | 83 | 175 | 1.7 | 7.0 | 0.00 | 0.00 | 0.00 | 35 | 969.9 |
| 20260510204818 | 82 | 219 | 2.6 | 7.8 | 0.00 | 0.00 | 0.00 | 34 | 969.9 |
| 20260510204319 | 82 | 248 | 3.5 | 10.4 | 0.00 | 0.00 | 0.00 | 34 | 970.0 |
| 20260510203818 | 83 | 152 | 2.6 | 10.4 | 0.00 | 0.00 | 0.00 | 33 | 970.0 |
| 20260510202318 | 83 | 235 | 1.7 | 7.0 | 0.00 | 0.00 | 0.00 | 35 | 970.2 |
| 20260510201818 | 83 | 171 | 1.7 | 7.0 | 0.00 | 0.00 | 0.00 | 33 | 970.1 |
| 20260510201318 | 83 | 243 | 1.7 | 6.1 | 0.00 | 0.00 | 0.00 | 33 | 970.2 |
| 20260510200817 | 83 | 146 | 0.9 | 7.0 | 0.00 | 0.00 | 0.00 | 33 | 970.3 |
| 20260510200315 | 82 | 198 | 0.9 | 7.0 | 0.00 | 0.00 | 0.00 | 37 | 970.3 |
| 20260510195813 | 82 | 133 | 0.0 | 4.3 | 0.00 | 0.00 | 0.00 | 36 | 970.4 |
| 20260510195314 | 82 | 194 | 0.9 | 4.3 | 0.00 | 0.00 | 0.00 | 36 | 970.4 |
| 20260510194811 | 81 | 175 | 2.6 | 8.7 | 0.00 | 0.00 | 0.00 | 39 | 970.4 |
| 20260510194311 | 82 | 113 | 2.6 | 8.7 | 0.00 | 0.00 | 0.00 | 35 | 970.5 |
| 20260510193809 | 82 | 112 | 1.7 | 7.0 | 0.00 | 0.00 | 0.00 | 37 | 970.5 |
| 20260510193306 | 82 | 155 | 1.7 | 7.0 | 0.00 | 0.00 | 0.00 | 35 | 970.6 |
| 20260510192307 | 82 | 188 | 2.6 | 7.8 | 0.00 | 0.00 | 0.00 | 36 | 970.7 |
| 20260510191803 | 82 | 251 | 2.6 | 7.8 | 0.00 | 0.00 | 0.00 | 37 | 970.7 |
| 20260510191303 | 82 | 161 | 2.6 | 7.0 | 0.00 | 0.00 | 0.00 | 36 | 970.7 |
| 20260510190802 | 82 | 171 | 0.9 | 7.0 | 0.00 | 0.00 | 0.00 | 36 | 970.7 |
| 20260510190304 | 82 | 289 | 1.7 | 7.0 | 0.00 | 0.00 | 0.00 | 39 | 970.8 |
| 20260510185759 | 81 | 271 | 2.6 | 7.0 | 0.00 | 0.00 | 0.00 | 40 | 970.8 |
| 20260510185252 | 81 | 325 | 2.6 | 7.8 | 0.00 | 0.00 | 0.00 | 39 | 970.9 |
| 20260510184747 | 81 | 337 | 1.7 | 10.4 | 0.00 | 0.00 | 0.00 | 39 | 970.8 |
| 20260510184241 | 81 | 325 | 2.6 | 10.4 | 0.00 | 0.00 | 0.00 | 39 | 970.9 |
| 20260510183734 | 81 | 167 | 1.7 | 8.7 | 0.00 | 0.00 | 0.00 | 39 | 970.9 |
| 20260510183229 | 81 | 144 | 0.0 | 2.6 | 0.00 | 0.00 | 0.00 | 37 | 970.9 |
| 20260510182723 | 81 | 88 | 0.9 | 5.2 | 0.00 | 0.00 | 0.00 | 38 | 970.9 |
| 20260510182217 | 80 | 92 | 1.7 | 7.8 | 0.00 | 0.00 | 0.00 | 40 | 971.0 |
| 20260510180658 | 81 | 174 | 0.9 | 7.0 | 0.00 | 0.00 | 0.00 | 36 | 971.2 |
| 20260510180153 | 81 | 319 | 0.9 | 7.8 | 0.00 | 0.00 | 0.00 | 38 | 971.2 |
| 20260510175646 | 81 | 312 | 1.7 | 7.8 | 0.00 | 0.00 | 0.00 | 37 | 971.1 |
| 20260510175140 | 81 | 275 | 0.9 | 6.1 | 0.00 | 0.00 | 0.00 | 40 | 971.2 |
| 20260510174634 | 80 | 294 | 0.9 | 7.0 | 0.00 | 0.00 | 0.00 | 39 | 971.3 |
| 20260510174128 | 80 | 336 | 1.7 | 7.8 | 0.00 | 0.00 | 0.00 | 37 | 971.3 |
| 20260510173117 | 79 | 299 | 2.6 | 8.7 | 0.00 | 0.00 | 0.00 | 37 | 971.5 |
| 20260510172104 | 79 | 73 | 0.9 | 6.1 | 0.00 | 0.00 | 0.00 | 40 | 971.6 |
| 20260510171605 | 79 | 127 | 0.9 | 7.0 | 0.00 | 0.00 | 0.00 | 44 | 971.6 |
| 20260510171053 | 79 | 193 | 0.9 | 7.0 | 0.00 | 0.00 | 0.00 | 40 | 971.6 |
| 20260510165534 | 79 | 305 | 1.7 | 7.8 | 0.00 | 0.00 | 0.00 | 40 | 971.6 |
| 20260510165029 | 79 | 171 | 1.7 | 7.8 | 0.00 | 0.00 | 0.00 | 39 | 971.7 |
| 20260510163510 | 78 | 83 | 0.9 | 6.1 | 0.00 | 0.00 | 0.00 | 38 | 971.7 |
| 20260510163005 | 78 | 46 | 0.9 | 6.1 | 0.00 | 0.00 | 0.00 | 42 | 971.8 |
| 20260510162500 | 78 | 81 | 0.0 | 4.3 | 0.00 | 0.00 | 0.00 | 43 | 971.8 |
| 20260510161953 | 78 | 153 | 0.9 | 4.3 | 0.00 | 0.00 | 0.00 | 40 | 972.0 |
| 20260510161446 | 78 | 323 | 0.9 | 4.3 | 0.00 | 0.00 | 0.00 | 37 | 972.0 |
| 20260510160940 | 77 | 315 | 1.7 | 7.8 | 0.00 | 0.00 | 0.00 | 42 | 972.1 |
| 20260510160434 | 77 | 307 | 1.7 | 7.8 | 0.00 | 0.00 | 0.00 | 40 | 972.1 |
| 20260510155424 | 77 | 288 | 1.7 | 6.1 | 0.00 | 0.00 | 0.00 | 42 | 972.0 |
| 20260510154917 | 77 | 63 | 1.7 | 5.2 | 0.00 | 0.00 | 0.00 | 44 | 972.0 |
| 20260510154410 | 77 | 21 | 1.7 | 5.2 | 0.00 | 0.00 | 0.00 | 43 | 972.1 |
| 20260510153905 | 77 | 328 | 0.9 | 4.3 | 0.00 | 0.00 | 0.00 | 46 | 972.0 |
| 20260510153400 | 76 | 355 | 0.9 | 4.3 | 0.00 | 0.00 | 0.00 | 44 | 972.1 |
| 20260510152853 | 76 | 98 | 0.9 | 4.3 | 0.00 | 0.00 | 0.00 | 45 | 972.1 |
| 20260510152348 | 76 | 113 | 0.9 | 4.3 | 0.00 | 0.00 | 0.00 | 45 | 972.2 |
| 20260510151840 | 76 | 63 | 0.9 | 4.3 | 0.00 | 0.00 | 0.00 | 50 | 972.1 |
| 20260510151335 | 76 | 12 | 1.7 | 7.0 | 0.00 | 0.00 | 0.00 | 47 | 972.3 |
| 20260510150829 | 76 | 355 | 1.7 | 7.0 | 0.00 | 0.00 | 0.00 | 45 | 972.2 |
| 20260510145816 | 75 | 325 | 0.9 | 7.8 | 0.00 | 0.00 | 0.00 | 46 | 972.3 |
| 20260510145310 | 75 | 317 | 0.9 | 5.2 | 0.00 | 0.00 | 0.00 | 48 | 972.2 |
| 20260510144804 | 75 | 21 | 0.0 | 1.7 | 0.00 | 0.00 | 0.00 | 49 | 972.2 |
| 20260510144258 | 74 | 30 | 0.0 | 3.5 | 0.00 | 0.00 | 0.00 | 50 | 972.2 |
| 20260510143246 | 74 | 36 | 0.9 | 6.1 | 0.00 | 0.00 | 0.00 | 54 | 972.2 |
| 20260510142740 | 74 | 355 | 0.9 | 4.3 | 0.00 | 0.00 | 0.00 | 56 | 972.1 |
| 20260510141728 | 73 | 111 | 0.0 | 2.6 | 0.00 | 0.00 | 0.00 | 57 | 972.2 |
| 20260510141223 | 72 | 111 | 0.9 | 2.6 | 0.00 | 0.00 | 0.00 | 60 | 972.2 |
| 20260510140718 | 72 | 355 | 0.9 | 4.3 | 0.00 | 0.00 | 0.00 | 59 | 972.1 |
| 20260510140210 | 71 | 355 | 0.9 | 4.3 | 0.00 | 0.00 | 0.00 | 61 | 972.2 |
| 20260510135702 | 71 | 350 | 0.0 | 0.9 | 0.00 | 0.00 | 0.00 | 61 | 972.2 |
| 20260510135200 | 70 | 350 | 0.9 | 3.5 | 0.00 | 0.00 | 0.00 | 69 | 972.3 |
| 20260510134703 | 70 | 350 | 0.0 | 3.5 | 0.00 | 0.00 | 0.00 | 68 | 972.3 |
| 20260510134158 | 69 | 348 | 0.0 | 2.6 | 0.00 | 0.00 | 0.00 | 71 | 972.2 |
| 20260510133656 | 69 | 348 | 0.0 | 1.7 | 0.00 | 0.00 | 0.00 | 70 | 972.1 |
| 20260510133154 | 68 | 348 | 0.0 | 2.6 | 0.00 | 0.00 | 0.00 | 74 | 972.1 |
| 20260510132654 | 68 | 348 | 0.0 | 2.6 | 0.00 | 0.00 | 0.00 | 76 | 972.1 |
| 20260510132154 | 67 | 348 | 0.0 | 0.0 | 0.00 | 0.00 | 0.00 | 77 | 972.2 |
| 20260510130649 | 64 | 348 | 0.0 | 0.0 | 0.00 | 0.00 | 0.00 | 85 | 971.9 |
| 20260510130149 | 63 | 348 | 0.0 | 0.0 | 0.00 | 0.00 | 0.00 | 87 | 971.9 |
| 20260510125648 | 62 | 355 | 0.0 | 0.0 | 0.00 | 0.00 | 0.00 | 90 | 971.9 |
| 20260510125148 | 62 | 355 | 0.0 | 0.0 | 0.00 | 0.00 | 0.00 | 93 | 971.8 |
| 20260510124645 | 62 | 306 | 0.0 | 0.0 | 0.00 | 0.00 | 0.00 | 93 | 971.8 |
| 20260510124149 | 61 | 306 | 0.0 | 0.0 | 0.00 | 0.00 | 0.00 | 92 | 971.8 |
| 20260510123644 | 60 | 306 | 0.0 | 0.0 | 0.00 | 0.00 | 0.00 | 91 | 971.8 |
| 20260510123144 | 59 | 306 | 0.0 | 0.0 | 0.00 | 0.00 | 0.00 | 90 | 971.8 |
| 20260510122644 | 58 | 313 | 0.0 | 0.0 | 0.00 | 0.00 | 0.00 | 89 | 971.8 |
| 20260510122140 | 57 | 313 | 0.0 | 0.0 | 0.00 | 0.00 | 0.00 | 88 | 971.7 |
| 20260510121640 | 56 | 313 | 0.0 | 0.0 | 0.00 | 0.00 | 0.00 | 89 | 971.7 |
| 20260510121138 | 56 | 313 | 0.0 | 0.0 | 0.00 | 0.00 | 0.00 | 89 | 971.6 |
| 20260510120638 | 55 | 313 | 0.0 | 0.0 | 0.00 | 0.00 | 0.00 | 89 | 971.5 |
| 20260510120136 | 55 | 313 | 0.0 | 0.0 | 0.00 | 0.00 | 0.00 | 89 | 971.3 |
| 20260510114636 | 53 | 313 | 0.0 | 0.0 | 0.00 | 0.00 | 0.00 | 89 | 971.3 |
| 20260510114134 | 52 | 313 | 0.0 | 0.0 | 0.00 | 0.00 | 0.00 | 89 | 971.1 |
| 20260510113633 | 52 | 180 | 0.0 | 0.0 | 0.00 | 0.00 | 0.00 | 90 | 970.9 |
| 20260510113132 | 51 | 180 | 0.0 | 0.0 | 0.00 | 0.00 | 0.00 | 90 | 970.7 |
| 20260510112631 | 51 | 180 | 0.0 | 0.0 | 0.00 | 0.00 | 0.00 | 90 | 970.7 |
| 20260510112129 | 51 | 180 | 0.0 | 0.0 | 0.00 | 0.00 | 0.00 | 90 | 970.6 |
| 20260510111123 | 50 | 180 | 0.0 | 0.0 | 0.00 | 0.00 | 0.00 | 90 | 970.5 |
| 20260510110624 | 50 | 180 | 0.0 | 0.0 | 0.00 | 0.00 | 0.00 | 90 | 970.5 |
| 20260510110124 | 50 | 180 | 0.0 | 0.0 | 0.00 | 0.00 | 0.00 | 90 | 970.4 |
| 20260510105625 | 50 | 180 | 0.0 | 0.0 | 0.00 | 0.00 | 0.00 | 90 | 970.3 |
| 20260510105123 | 49 | 180 | 0.0 | 0.0 | 0.00 | 0.00 | 0.00 | 91 | 970.2 |
| 20260510104624 | 49 | 180 | 0.0 | 0.0 | 0.00 | 0.00 | 0.00 | 91 | 970.2 |
| 20260510103624 | 49 | 180 | 0.0 | 0.0 | 0.00 | 0.00 | 0.00 | 91 | 970.0 |
| 20260510103124 | 49 | 180 | 0.0 | 0.0 | 0.00 | 0.00 | 0.00 | 91 | 970.0 |
| 20260510102619 | 49 | 180 | 0.0 | 0.0 | 0.00 | 0.00 | 0.00 | 91 | 969.9 |
| 20260510102119 | 50 | 180 | 0.0 | 0.0 | 0.00 | 0.00 | 0.00 | 91 | 969.8 |
| 20260510101120 | 50 | 180 | 0.0 | 0.0 | 0.00 | 0.00 | 0.00 | 91 | 969.6 |
| 20260510100620 | 50 | 180 | 0.0 | 0.0 | 0.00 | 0.00 | 0.00 | 90 | 969.5 |
| 20260510100119 | 50 | 180 | 0.0 | 0.0 | 0.00 | 0.00 | 0.00 | 91 | 969.5 |
| 20260510095620 | 51 | 180 | 0.0 | 0.0 | 0.00 | 0.00 | 0.00 | 91 | 969.4 |
| 20260510095119 | 51 | 180 | 0.0 | 0.0 | 0.00 | 0.00 | 0.00 | 91 | 969.4 |
| 20260510094619 | 51 | 180 | 0.0 | 0.0 | 0.00 | 0.00 | 0.00 | 91 | 969.3 |
| 20260510094115 | 51 | 180 | 0.0 | 0.0 | 0.00 | 0.00 | 0.00 | 91 | 969.3 |
| 20260510093616 | 51 | 180 | 0.0 | 0.0 | 0.00 | 0.00 | 0.00 | 91 | 969.3 |
| 20260510093116 | 51 | 180 | 0.0 | 0.0 | 0.00 | 0.00 | 0.00 | 91 | 969.3 |
| 20260510092615 | 51 | 180 | 0.0 | 0.0 | 0.00 | 0.00 | 0.00 | 91 | 969.3 |
| 20260510091616 | 51 | 180 | 0.0 | 0.0 | 0.00 | 0.00 | 0.00 | 91 | 969.1 |
| 20260510091115 | 51 | 180 | 0.0 | 0.0 | 0.00 | 0.00 | 0.00 | 91 | 969.1 |
| 20260510090116 | 53 | 180 | 0.0 | 0.0 | 0.00 | 0.00 | 0.00 | 91 | 969.0 |
| 20260510085615 | 53 | 180 | 0.0 | 0.0 | 0.00 | 0.00 | 0.00 | 90 | 969.0 |
| 20260510085115 | 53 | 180 | 0.0 | 0.0 | 0.00 | 0.00 | 0.00 | 90 | 969.0 |
| 20260510084613 | 53 | 180 | 0.0 | 0.0 | 0.00 | 0.00 | 0.00 | 90 | 969.0 |
| 20260510084112 | 53 | 180 | 0.0 | 0.0 | 0.00 | 0.00 | 0.00 | 91 | 968.9 |
| 20260510083611 | 53 | 180 | 0.0 | 0.0 | 0.00 | 0.00 | 0.00 | 91 | 968.9 |
| 20260510083112 | 53 | 180 | 0.0 | 0.0 | 0.00 | 0.00 | 0.00 | 91 | 968.8 |
| 20260510082111 | 53 | 180 | 0.0 | 0.0 | 0.00 | 0.00 | 0.00 | 91 | 968.7 |
| 20260510081109 | 55 | 180 | 0.0 | 0.0 | 0.00 | 0.00 | 0.00 | 90 | 968.6 |
| 20260510080607 | 55 | 180 | 0.0 | 1.7 | 0.00 | 0.00 | 0.00 | 90 | 968.5 |
| 20260510080105 | 54 | 180 | 0.0 | 1.7 | 0.00 | 0.00 | 0.00 | 91 | 968.4 |
| 20260510075100 | 54 | 180 | 0.0 | 0.0 | 0.00 | 0.00 | 0.00 | 91 | 968.2 |
| 20260510074557 | 55 | 180 | 0.0 | 0.0 | 0.00 | 0.00 | 0.00 | 91 | 968.2 |
| 20260510074050 | 55 | 180 | 0.0 | 0.0 | 0.00 | 0.00 | 0.00 | 91 | 968.3 |
| 20260510073545 | 55 | 180 | 0.0 | 0.0 | 0.00 | 0.00 | 0.00 | 91 | 968.2 |
| 20260510072533 | 55 | 180 | 0.0 | 0.0 | 0.00 | 0.00 | 0.00 | 91 | 968.2 |
| 20260510072027 | 55 | 180 | 0.0 | 0.0 | 0.00 | 0.00 | 0.00 | 91 | 968.2 |
| 20260510071015 | 56 | 180 | 0.0 | 0.0 | 0.00 | 0.00 | 0.00 | 91 | 968.1 |
| 20260510070509 | 56 | 180 | 0.0 | 0.0 | 0.00 | 0.00 | 0.00 | 91 | 968.2 |
| 20260510070004 | 56 | 180 | 0.0 | 0.0 | 0.00 | 0.00 | 0.00 | 91 | 968.1 |
| 20260510065457 | 56 | 180 | 0.0 | 0.0 | 0.00 | 0.00 | 0.00 | 91 | 968.1 |
| 20260510064444 | 56 | 180 | 0.0 | 0.0 | 0.00 | 0.00 | 0.00 | 91 | 968.1 |
| 20260510063433 | 56 | 180 | 0.0 | 0.0 | 0.00 | 0.00 | 0.00 | 91 | 968.2 |
| 20260510062927 | 56 | 180 | 0.0 | 0.0 | 0.00 | 0.00 | 0.00 | 91 | 968.2 |
| 20260510062421 | 56 | 180 | 0.0 | 0.0 | 0.00 | 0.00 | 0.00 | 91 | 968.1 |
| 20260510061914 | 56 | 180 | 0.0 | 0.0 | 0.00 | 0.00 | 0.00 | 91 | 968.1 |
| 20260510061408 | 57 | 180 | 0.0 | 0.0 | 0.00 | 0.00 | 0.00 | 91 | 968.2 |
| 20260510060903 | 57 | 180 | 0.0 | 0.0 | 0.00 | 0.00 | 0.00 | 92 | 968.4 |
| 20260510060357 | 57 | 180 | 0.0 | 0.0 | 0.00 | 0.00 | 0.00 | 92 | 968.4 |
| 20260510055851 | 57 | 180 | 0.0 | 0.0 | 0.00 | 0.00 | 0.00 | 91 | 968.4 |
| 20260510055345 | 57 | 180 | 0.0 | 0.0 | 0.00 | 0.00 | 0.00 | 91 | 968.4 |
| 20260510054839 | 57 | 180 | 0.0 | 0.0 | 0.00 | 0.00 | 0.00 | 92 | 968.5 |
| 20260510054333 | 57 | 180 | 0.0 | 0.0 | 0.00 | 0.00 | 0.00 | 92 | 968.5 |
| 20260510053828 | 57 | 180 | 0.0 | 0.0 | 0.00 | 0.00 | 0.00 | 92 | 968.4 |
| 20260510053320 | 57 | 180 | 0.0 | 0.0 | 0.00 | 0.00 | 0.00 | 92 | 968.4 |
| 20260510052814 | 58 | 180 | 0.0 | 0.0 | 0.00 | 0.00 | 0.00 | 92 | 968.4 |
| 20260510050751 | 58 | 181 | 0.0 | 0.0 | 0.00 | 0.00 | 0.00 | 92 | 968.5 |
| 20260510050245 | 58 | 181 | 0.0 | 0.0 | 0.00 | 0.00 | 0.00 | 92 | 968.5 |
| 20260510045739 | 58 | 181 | 0.0 | 0.0 | 0.00 | 0.00 | 0.00 | 92 | 968.6 |
| 20260510044728 | 59 | 181 | 0.0 | 0.0 | 0.00 | 0.00 | 0.00 | 92 | 968.6 |
| 20260510044221 | 59 | 181 | 0.0 | 0.0 | 0.00 | 0.00 | 0.00 | 92 | 968.5 |
| 20260510043714 | 59 | 181 | 0.0 | 0.0 | 0.00 | 0.00 | 0.00 | 92 | 968.4 |
| 20260510042703 | 59 | 181 | 0.0 | 0.0 | 0.00 | 0.00 | 0.00 | 93 | 968.5 |
| 20260510041651 | 59 | 181 | 0.0 | 0.0 | 0.00 | 0.00 | 0.00 | 93 | 968.6 |
| 20260510041145 | 59 | 181 | 0.0 | 0.0 | 0.00 | 0.00 | 0.00 | 93 | 968.5 |
| 20260510040638 | 59 | 181 | 0.0 | 0.0 | 0.00 | 0.00 | 0.00 | 93 | 968.4 |
| 20260510040133 | 60 | 181 | 0.0 | 0.0 | 0.00 | 0.00 | 0.00 | 93 | 968.5 |
| 20260510035121 | 60 | 181 | 0.0 | 0.0 | 0.00 | 0.00 | 0.00 | 93 | 968.5 |
| 20260510034615 | 60 | 181 | 0.0 | 0.0 | 0.00 | 0.00 | 0.00 | 93 | 968.4 |
| 20260510034108 | 60 | 181 | 0.0 | 0.0 | 0.00 | 0.00 | 0.00 | 93 | 968.4 |
| 20260510033602 | 60 | 181 | 0.0 | 0.0 | 0.00 | 0.00 | 0.00 | 93 | 968.4 |
| 20260510033056 | 60 | 181 | 0.0 | 0.0 | 0.00 | 0.00 | 0.00 | 93 | 968.5 |
| 20260510032550 | 61 | 181 | 0.0 | 0.0 | 0.00 | 0.00 | 0.00 | 93 | 968.4 |
| 20260510032045 | 61 | 181 | 0.0 | 0.0 | 0.00 | 0.00 | 0.00 | 93 | 968.6 |
| 20260510031538 | 61 | 181 | 0.0 | 0.0 | 0.00 | 0.00 | 0.00 | 93 | 968.6 |
| 20260510031032 | 61 | 181 | 0.0 | 0.0 | 0.00 | 0.00 | 0.00 | 93 | 968.6 |
| 20260510030526 | 61 | 181 | 0.0 | 0.0 | 0.00 | 0.00 | 0.00 | 93 | 968.5 |
| 20260510030021 | 62 | 181 | 0.0 | 0.0 | 0.00 | 0.00 | 0.00 | 93 | 968.5 |
| 20260510025515 | 62 | 181 | 0.0 | 0.0 | 0.00 | 0.00 | 0.00 | 92 | 968.6 |
| 20260510023957 | 63 | 181 | 0.0 | 0.0 | 0.00 | 0.00 | 0.00 | 92 | 968.4 |
| 20260510023451 | 63 | 181 | 0.0 | 0.0 | 0.00 | 0.00 | 0.00 | 91 | 968.4 |
| 20260510022946 | 63 | 181 | 0.0 | 0.0 | 0.00 | 0.00 | 0.00 | 91 | 968.3 |
| 20260510022438 | 64 | 181 | 0.0 | 0.0 | 0.00 | 0.00 | 0.00 | 91 | 968.3 |
| 20260510021933 | 64 | 181 | 0.0 | 0.0 | 0.00 | 0.00 | 0.00 | 90 | 968.2 |
| 20260510021427 | 64 | 181 | 0.0 | 0.0 | 0.00 | 0.00 | 0.00 | 90 | 968.2 |
| 20260510020921 | 65 | 181 | 0.0 | 0.0 | 0.00 | 0.00 | 0.00 | 89 | 968.1 |
| 20260510020414 | 65 | 181 | 0.0 | 0.0 | 0.00 | 0.00 | 0.00 | 89 | 968.2 |
| 20260510015908 | 65 | 181 | 0.0 | 0.0 | 0.00 | 0.00 | 0.00 | 88 | 968.0 |
| 20260510015403 | 65 | 181 | 0.0 | 0.0 | 0.00 | 0.00 | 0.00 | 88 | 967.8 |
| 20260510014857 | 66 | 181 | 0.0 | 0.0 | 0.00 | 0.00 | 0.00 | 87 | 967.8 |
| 20260510014351 | 66 | 181 | 0.0 | 0.0 | 0.00 | 0.00 | 0.00 | 87 | 967.7 |
| 20260510013844 | 66 | 181 | 0.0 | 1.7 | 0.00 | 0.00 | 0.00 | 86 | 967.6 |
| 20260510013339 | 66 | 181 | 0.0 | 1.7 | 0.00 | 0.00 | 0.00 | 86 | 967.6 |
| 20260510012832 | 67 | 181 | 0.0 | 2.6 | 0.00 | 0.00 | 0.00 | 86 | 967.6 |
| 20260510011821 | 67 | 182 | 0.0 | 2.6 | 0.00 | 0.00 | 0.00 | 85 | 967.5 |
| 20260510011315 | 67 | 182 | 0.9 | 3.5 | 0.00 | 0.00 | 0.00 | 84 | 967.4 |
| 20260510004745 | 68 | 205 | 0.9 | 4.3 | 0.00 | 0.00 | 0.00 | 84 | 966.9 |
| 20260510004239 | 68 | 154 | 0.0 | 3.5 | 0.00 | 0.00 | 0.00 | 84 | 966.8 |
| 20260510003733 | 68 | 183 | 0.0 | 0.0 | 0.00 | 0.00 | 0.00 | 84 | 966.7 |
| 20260510003227 | 68 | 183 | 0.0 | 0.0 | 0.00 | 0.00 | 0.00 | 83 | 966.6 |
| 20260510002721 | 68 | 183 | 0.0 | 0.0 | 0.00 | 0.00 | 0.00 | 83 | 966.5 |
| 20260510002215 | 69 | 183 | 0.0 | 0.0 | 0.00 | 0.00 | 0.00 | 82 | 966.5 |
| 20260510001708 | 69 | 183 | 0.0 | 2.6 | 0.00 | 0.00 | 0.00 | 81 | 966.4 |
| 20260510001203 | 69 | 183 | 0.9 | 2.6 | 0.00 | 0.00 | 0.00 | 81 | 966.3 |
| 20260510000658 | 69 | 164 | 0.0 | 3.5 | 0.00 | 0.00 | 0.00 | 80 | 966.3 |
| 20260509235651 | 69 | 189 | 0.9 | 6.1 | 0.00 | 0.00 | 0.00 | 80 | 966.2 |
| 20260509235151 | 70 | 230 | 0.9 | 6.1 | 0.00 | 0.00 | 0.00 | 79 | 966.0 |